RH
80 85 79 80 95 72 51 52 42 35 23 13 7 5 4 4 3 2 2 2 2 1 1 2 1 1 1 1 1 2 4 4 4 4 5 6 7 8 12 15 16 16 12 14 17 16 66
90 92 83 86 99 76 58 66 53 39 23 18 9 5 3 4 4 2 2 2 2 1 2 2 1 1 1 1 1 2 3 4 4 4 5 6 7 8 12 15 16 18 17 14 16 18 22
90 93 94 100 100 82 58 61 47 38 23 31 15 6 4 4 4 3 2 2 2 1 2 2 1 1 1 2 1 1 2 3 5 5 5 7 8 8 12 15 16 17 18 16 14 16 19
94 96 86 100 85 89 60 66 46 43 24 27 50 14 6 4 4 3 3 2 2 2 2 2 1 1 1 1 1 1 2 3 6 6 7 7 9 11 11 14 15 17 18 16 17 18 20
89 92 96 100 80 88 68 73 45 35 29 27 34 31 9 4 4 3 3 2 2 2 2 2 1 1 2 1 1 2 2 3 6 8 8 8 9 11 12 14 14 15 18 17 17 18 16
75 80 88 88 89 87 68 76 56 39 25 28 31 37 19 8 4 3 3 3 2 2 2 2 2 2 2 2 1 2 2 3 5 9 10 9 9 9 10 12 13 16 17 19 20 22 18
66 73 96 86 83 85 65 77 70 52 33 27 34 37 33 12 6 4 3 4 2 2 2 2 2 2 2 2 2 2 2 3 5 10 13 9 7 10 13 15 17 19 20 24 23 22 42
68 86 100 82 84 88 66 74 56 51 41 27 38 38 38 25 9 6 4 4 3 2 2 3 3 2 2 2 2 2 3 3 5 11 15 10 10 11 12 14 16 18 20 22 21 22 23
68 81 100 89 88 90 70 77 69 53 47 28 42 43 38 36 15 9 6 6 3 2 2 3 3 2 2 2 2 3 3 5 7 11 12 10 8 11 11 12 14 19 20 24 23 22 20
80 88 100 91 95 98 72 84 76 63 56 30 55 47 47 37 27 11 7 7 4 3 2 2 3 3 2 2 2 3 3 4 7 10 9 7 8 11 11 12 14 16 19 23 24 22 23
74 99 100 93 97 94 87 84 69 64 60 33 50 55 54 41 32 13 8 7 7 4 4 2 3 4 3 3 3 4 4 5 5 5 7 8 10 14 16 16 16 18 19 22 25 22 22
78 98 99 95 100 95 97 80 74 74 68 45 44 64 55 45 34 24 8 9 10 6 4 4 3 4 5 4 4 5 6 6 6 8 12 15 14 14 16 18 18 18 22 22 24 24 22
66 100 100 96 100 93 88 84 82 77 70 58 44 67 55 41 42 37 11 9 13 11 6 5 3 4 5 5 4 6 8 8 10 9 11 11 12 13 14 18 18 18 22 23 22 24 25
91 94 99 99 100 95 80 94 89 78 71 65 49 70 52 45 43 56 19 10 12 13 8 6 5 4 4 6 6 6 10 14 14 14 17 15 16 17 15 19 20 21 22 24 24 25 27
100 98 98 100 100 97 88 92 99 81 73 72 50 68 51 44 42 42 40 14 14 15 10 8 8 4 5 5 8 6 8 15 16 18 22 20 21 22 23 20 21 20 20 22 23 23 27
100 100 100 100 100 100 89 89 98 91 77 72 54 73 52 47 43 55 50 16 16 17 10 8 9 7 5 5 6 9 7 12 13 20 25 24 29 25 22 23 22 21 22 21 22 24 26
100 100 100 100 100 100 92 88 99 94 79 77 62 73 56 47 43 56 62 42 14 16 15 7 8 9 7 6 6 8 11 10 10 12 17 26 32 38 42 35 30 28 25 26 26 25 27
100 100 100 100 100 96 95 90 96 96 83 88 53 70 53 41 39 50 58 56 18 16 19 9 8 8 7 7 7 7 11 11 10 10 14 17 24 32 46 42 46 40 36 30 28 34 37
100 100 100 100 100 98 96 95 96 83 87 72 55 71 54 39 42 41 54 65 29 18 20 11 8 10 8 7 8 9 10 13 13 12 10 11 15 23 31 30 36 42 52 46 41 34 37
100 100 100 100 100 96 97 99 86 96 87 77 52 72 48 35 36 39 56 60 62 16 20 14 10 9 9 7 7 8 8 11 16 16 14 13 12 13 15 22 27 35 32 33 28 37 38
100 100 100 100 99 98 93 100 99 97 98 89 71 71 46 30 35 40 47 64 66 46 17 12 10 10 8 8 6 8 8 10 13 18 20 18 17 16 16 15 15 16 18 22 29 30 24
100 100 100 100 97 100 97 94 98 100 99 96 70 69 46 37 39 42 47 60 68 67 19 13 10 9 7 7 7 8 8 9 11 16 19 22 18 20 20 20 19 20 21 19 18 19 21
100 100 100 100 98 100 100 90 100 98 91 87 70 65 44 38 39 50 45 61 66 68 43 13 9 6 7 6 7 7 9 10 11 14 20 26 30 22 22 23 25 27 21 21 20 18 18
100 100 100 100 100 100 98 95 100 96 95 80 62 65 41 39 40 46 43 54 57 67 60 23 13 7 7 7 7 7 9 10 12 15 21 25 41 48 34 29 33 24 24 29 30 26 23
100 100 100 100 97 95 96 94 97 96 94 71 62 55 44 42 46 43 47 55 58 66 76 26 16 7 7 7 7 7 8 11 10 13 16 25 34 44 48 51 44 27 27 29 30 23 30
100 100 100 100 93 98 100 99 96 91 82 66 63 51 45 51 46 43 40 49 55 69 69 50 18 10 7 5 7 8 8 10 12 12 13 17 27 37 37 50 58 46 53 54 50 35 38
100 100 100 100 93 97 100 100 90 83 74 69 62 49 52 50 47 51 46 46 45 65 75 56 21 11 8 6 6 7 9 10 12 12 13 16 18 25 26 40 38 56 70 64 66 67 53
100 99 100 97 92 100 92 96 85 70 73 69 61 52 57 50 50 45 44 36 39 54 69 61 27 17 11 8 6 7 9 11 12 12 13 15 19 24 30 35 31 49 60 65 67 67 66
94 100 100 98 94 90 90 97 79 80 83 70 64 53 56 54 53 48 48 39 37 48 62 73 41 20 13 10 6 7 8 12 13 14 14 15 16 18 25 25 26 29 43 48 67 74 71
Wind_Speed
60 61 64 67 75 82 85 90 91 95 97 94 95 98 94 96 95 89 80 70 59 55 52 51 43 34 33 41 45 52 64 72 78 81 83 89 95 100 102 98 99 98 95 99 102 106 111
61 61 63 69 77 82 86 89 92 95 96 99 97 99 97 99 99 94 85 75 63 58 57 54 40 31 26 31 41 46 59 68 76 77 82 84 91 97 104 103 100 99 99 100 103 107 107
59 61 66 74 78 83 85 88 91 93 95 101 100 99 99 101 100 100 87 79 68 62 61 55 42 32 25 24 35 39 52 63 67 75 81 82 88 94 102 105 103 100 102 103 104 105 106
59 64 68 73 75 79 82 87 90 93 93 98 107 104 103 104 103 102 95 82 74 66 63 55 44 36 25 19 24 30 45 56 63 74 81 84 87 92 97 104 105 104 103 103 100 105 110
57 62 65 72 74 78 81 86 89 91 93 96 102 109 107 106 106 104 101 85 77 70 66 58 46 39 24 13 13 27 42 53 60 71 80 83 86 90 94 100 103 103 101 97 99 107 107
56 63 63 66 73 76 80 85 89 91 89 93 100 108 106 110 109 105 101 94 81 71 68 62 48 41 24 11 9 27 40 50 57 64 77 83 86 87 87 92 89 93 97 99 99 103 102
56 61 61 65 70 73 80 84 88 92 90 91 97 104 112 110 110 110 102 101 85 74 68 65 52 42 24 13 1 18 33 46 53 60 74 78 76 78 79 83 88 93 98 101 100 101 108
54 56 61 65 69 71 79 83 87 89 91 89 96 102 110 110 111 113 106 103 97 79 69 67 56 43 29 14 9 8 23 37 48 57 69 77 75 79 81 81 83 89 92 97 99 101 108
53 52 59 64 66 70 76 80 85 87 89 86 92 101 106 112 109 112 110 109 102 81 74 68 58 44 31 21 12 6 16 29 42 56 66 69 72 75 75 76 79 84 88 93 97 99 104
54 53 56 63 64 67 73 76 82 85 88 83 89 95 104 109 111 108 110 109 103 89 77 68 62 48 34 24 19 11 8 25 42 53 59 58 62 66 69 70 75 79 83 87 93 96 99
58 54 58 61 63 66 69 73 80 83 86 83 86 92 101 107 108 107 107 106 106 95 80 70 61 53 36 26 22 15 7 17 30 36 43 48 48 54 61 67 71 73 77 80 87 92 96
55 54 58 58 61 66 65 72 76 80 82 82 84 91 97 101 105 104 104 105 102 96 84 71 61 54 41 27 19 18 14 10 22 26 37 45 49 55 61 64 67 71 72 76 81 88 91
54 54 56 56 59 63 63 70 73 77 80 80 80 87 93 97 101 101 99 102 105 95 87 74 62 52 45 31 18 16 13 8 15 3 19 29 43 53 59 62 64 65 67 70 75 80 87
55 55 57 55 57 62 62 67 70 74 77 77 78 82 90 92 96 98 95 100 101 98 79 75 60 52 44 35 22 13 15 8 2 1 3 11 19 39 48 56 61 63 64 65 71 75 84
56 56 56 57 56 60 61 65 68 73 74 75 73 79 86 88 91 95 97 95 97 96 87 70 56 49 41 35 27 15 8 6 3 3 2 4 16 25 41 51 57 59 59 61 68 73 80
56 57 56 56 55 60 61 64 66 71 73 73 72 76 83 84 87 93 93 94 95 92 79 71 53 44 38 34 27 18 7 3 8 10 10 6 9 16 29 41 48 53 56 57 61 66 75
54 56 59 56 58 60 63 62 64 68 72 72 70 71 79 83 82 89 90 94 92 92 84 69 56 43 34 29 27 21 10 5 7 12 14 14 13 14 17 28 43 50 52 55 60 62 67
55 57 59 57 58 61 62 61 64 66 69 70 68 70 76 80 76 83 89 89 90 91 87 71 56 46 34 25 22 21 15 10 5 10 17 21 18 20 23 27 30 37 43 50 51 55 64
57 57 59 56 56 61 61 62 63 65 65 68 66 69 76 79 77 79 87 90 90 89 85 67 62 50 37 27 19 17 17 13 10 8 12 20 28 30 31 35 37 38 43 50 54 60 60
58 58 59 59 56 59 59 60 64 64 65 68 65 68 73 77 77 79 85 86 89 84 81 76 62 50 40 32 22 16 14 12 11 11 11 13 21 32 36 39 42 43 49 53 58 55 62
58 58 58 58 56 58 59 60 60 62 63 68 66 67 69 72 76 78 86 86 86 83 84 76 65 57 42 33 30 19 16 14 12 11 12 13 15 18 24 31 35 37 40 41 42 54 59
58 59 59 58 57 56 59 59 60 61 62 65 64 67 69 72 75 79 84 88 84 81 81 79 71 59 44 29 26 26 20 17 14 14 13 14 14 15 17 21 23 29 36 40 45 48 47
61 58 56 57 57 55 58 61 60 61 61 61 62 65 67 71 74 78 82 86 89 85 81 80 69 60 44 31 26 24 24 21 17 17 16 15 15 17 19 19 18 24 24 28 34 40 43
59 56 54 56 56 55 58 59 59 60 60 60 59 62 64 68 74 77 78 84 86 88 83 80 75 68 48 36 27 22 23 23 21 20 19 17 17 19 21 20 22 30 22 24 27 30 32
57 53 53 54 56 56 57 56 56 56 60 56 59 60 63 67 73 77 81 85 88 92 92 82 76 62 55 36 30 27 20 26 23 22 24 22 22 22 22 22 28 26 23 24 28 28 28
55 53 54 56 55 55 55 54 54 55 58 53 58 59 62 67 71 74 77 81 86 93 87 78 74 59 57 35 28 29 24 24 24 27 25 26 26 27 27 24 27 26 23 23 25 28 29
54 53 53 53 54 53 54 54 55 56 55 53 57 58 64 67 70 76 78 79 83 87 87 78 74 63 54 43 27 26 27 26 27 29 25 27 27 28 28 28 29 23 27 29 28 29 29
53 53 53 53 53 53 53 55 58 54 52 55 57 60 64 68 71 75 76 72 81 84 86 81 66 64 53 46 33 25 26 27 29 29 27 28 29 27 29 31 32 26 29 28 30 31 31
51 52 52 54 53 54 54 58 57 50 53 55 57 60 65 68 72 77 79 77 82 82 85 76 68 65 59 46 34 26 26 25 27 31 31 30 32 31 31 32 34 31 32 31 32 30 29
Wind_Direction
330 333 336 339 336 335 336 338 339 339 340 345 345 345 353 356 356 355 351 349 343 343 343 339 323 302 279 263 249 236 229 223 220 217 216 214 215 215 214 214 215 216 216 217 217 218 218
328 333 337 337 335 334 334 337 338 339 341 342 346 346 351 356 357 357 355 353 349 350 352 343 330 317 299 262 243 233 225 223 219 216 216 214 215 214 214 213 214 214 215 218 218 219 218
326 330 334 334 332 332 334 336 338 338 342 343 345 348 351 355 358 358 359 357 353 354 357 347 340 334 317 272 242 228 219 220 215 213 214 212 213 214 214 214 213 214 213 215 219 219 219
324 325 329 330 331 330 334 335 338 339 343 342 346 350 349 355 358 360 1 0 356 357 1 353 351 347 330 287 242 221 217 214 210 209 212 210 211 213 213 214 213 214 215 215 217 219 219
323 325 327 327 329 330 334 335 336 338 342 343 345 346 349 354 357 0 4 4 360 360 2 0 358 356 342 306 228 208 205 208 207 206 209 210 210 211 212 214 215 214 216 217 217 222 221
322 323 325 326 327 329 333 333 335 338 342 344 345 346 350 351 355 359 3 6 4 3 3 6 3 2 354 343 210 199 200 201 206 204 208 209 209 211 210 213 216 217 217 217 217 222 224
318 321 324 325 326 328 331 333 335 337 341 344 345 347 347 350 354 356 2 8 6 5 6 12 8 7 358 21 234 199 202 200 201 202 208 211 209 211 210 210 212 214 213 215 215 218 221
315 319 320 322 324 328 330 332 334 336 339 345 345 348 347 348 352 354 359 3 7 7 8 13 10 13 11 38 59 186 199 203 198 199 206 209 206 209 208 209 210 214 214 215 216 216 219
310 318 319 320 324 325 328 331 333 335 338 345 345 348 347 347 351 353 356 1 7 7 9 12 15 14 17 35 69 102 186 192 196 201 208 211 206 207 209 209 211 215 213 214 216 217 220
310 313 317 319 323 323 328 330 332 334 337 343 346 347 346 347 350 351 354 358 2 8 9 12 14 17 22 38 54 80 172 192 196 206 210 214 208 206 210 210 212 215 215 215 217 218 221
306 309 311 315 318 321 326 329 330 334 336 342 344 346 347 347 352 352 354 357 360 7 7 9 15 16 21 35 54 69 130 196 209 214 215 216 210 204 208 211 213 217 218 217 218 220 221
300 304 308 314 315 319 325 327 330 331 335 340 343 347 347 348 350 355 354 353 0 4 6 8 12 14 18 27 51 59 71 189 207 214 212 214 208 205 205 210 214 217 218 219 218 221 223
299 299 306 313 314 318 323 325 328 330 333 338 342 346 346 349 353 356 357 354 356 3 6 4 6 12 15 19 41 70 66 72 196 174 224 227 213 207 208 209 214 218 220 219 220 222 225
296 298 305 310 312 314 320 322 326 328 331 336 341 345 345 350 355 356 358 355 355 1 5 2 3 6 10 16 22 58 85 89 265 338 214 244 231 218 213 212 215 218 220 219 221 222 225
291 298 302 307 309 311 318 320 326 326 328 335 339 343 344 349 356 353 356 356 355 357 1 2 360 3 3 8 14 22 84 103 129 123 177 235 223 208 212 215 217 221 223 222 221 225 225
288 293 299 304 307 309 315 319 323 323 327 334 337 342 343 349 355 356 355 357 353 353 3 360 360 357 359 358 3 9 27 186 182 186 207 193 207 214 217 216 220 222 224 225 226 227 227
285 290 296 300 303 305 311 316 319 322 325 332 334 340 341 348 354 359 357 353 353 352 357 360 357 357 352 351 350 354 355 314 230 204 193 194 188 199 207 213 219 223 224 226 227 228 229
282 287 293 296 301 303 308 313 316 319 324 328 332 337 339 347 354 358 356 355 354 352 357 357 353 353 352 343 340 339 339 326 279 232 214 207 199 202 216 222 224 226 229 230 230 229 229
280 284 289 293 299 302 305 310 313 319 322 325 333 336 338 348 355 355 357 356 353 352 354 358 351 351 347 338 328 326 320 317 298 267 239 217 207 206 211 212 211 210 219 222 226 225 227
278 283 287 292 296 300 303 308 312 318 320 324 332 334 338 346 355 356 357 354 356 352 350 357 347 350 346 337 323 312 306 298 292 279 257 242 235 228 222 219 219 221 220 223 221 225 227
277 282 284 289 295 296 300 305 312 314 319 323 328 332 337 346 353 356 357 356 356 353 348 353 355 351 346 335 324 307 296 293 281 261 256 247 245 245 238 237 236 239 242 241 235 231 231
276 280 281 285 292 294 300 303 307 311 315 321 326 331 339 349 352 357 358 356 356 353 350 349 353 342 341 332 319 303 292 284 276 273 264 250 241 242 238 238 240 239 237 232 236 242 242
273 274 277 281 288 292 297 304 304 308 313 321 323 328 339 348 352 356 359 356 358 352 348 346 351 349 338 327 312 297 283 278 275 267 260 254 246 244 246 242 242 247 241 242 237 234 234
267 271 275 281 286 290 298 300 302 307 314 319 320 327 340 347 351 354 357 356 354 356 348 348 348 347 337 321 308 294 278 267 265 261 258 253 247 244 249 251 251 247 241 246 247 244 243
264 268 275 280 285 290 296 298 303 308 313 318 320 328 340 347 350 354 356 357 354 356 351 343 345 347 341 327 308 295 282 265 258 256 254 250 242 244 244 241 246 251 250 248 250 247 248
262 268 273 277 283 290 294 296 301 308 312 318 320 331 339 347 348 350 355 357 358 358 355 348 345 345 336 330 311 297 288 267 260 250 252 252 246 243 246 242 247 256 254 250 250 253 250
262 267 274 275 282 287 291 295 300 308 311 317 321 332 338 345 346 350 353 356 359 358 356 350 340 346 345 333 317 301 291 274 262 259 253 253 255 252 254 250 247 250 250 250 249 251 256
262 267 270 276 282 285 290 293 300 308 311 315 324 332 338 341 344 349 351 356 356 355 359 355 347 346 340 333 318 304 289 277 267 263 257 255 256 256 255 255 258 248 253 253 255 255 253
262 266 271 275 282 286 291 295 302 307 309 313 323 330 335 338 343 345 348 351 355 355 357 359 346 342 344 338 323 309 298 281 270 264 258 254 255 256 254 254 256 252 251 252 251 252 257